Hourly Data Report for August 18, 2021

ALGONQUIN PARK EAST GATE
ONTARIO
Current Station Operator: ECCC - MSC

45°32'00.000" N
78°16'00.000" W
397.00 m
6080192
71581
TNK

Download Data

Hourly Data (August 2021)
Hourly Data Report for August 18, 2021
TIME
LST
Temp Definition
°C
Dew Point Definition
°C
Rel Hum Definition
%
Precip. Amount Definition
mm

Wind Dir Definition
10's deg

Wind Spd Definition
km/h
Visibility Definition
km
Stn Press Definition
kPa
Hmdx Definition


Wind Chill Definition


Weather Definition


00:00 17.3 16.8 97 0.0   0   97.30     LegendNANA
01:00 17.8 17.5 98 0.0   0   97.28     LegendNANA
02:00 18.4 17.9 97 0.0   0   97.29     LegendNANA
03:00 18.7 18.1 97 0.0 0 1   97.30     LegendNANA
04:00 19.0 18.3 96 0.0   0   97.31     LegendNANA
05:00 19.0 18.5 97 0.0 12 1   97.34     LegendNANA
06:00 19.0 18.5 97 0.0   0   97.39     LegendNANA
07:00 20.4 19.6 95 0.0   0   97.45 28   LegendNANA
08:00 22.1 20.0 88 0.0 9 3   97.46 30   LegendNANA
09:00 23.3 19.0 77 0.0 13 3   97.47 30   LegendNANA
10:00 23.9 18.8 73 0.0 19 6   97.44 31   LegendNANA
11:00 25.6 18.9 67 0.0 14 7   97.40 32   LegendNANA
12:00 25.9 18.8 65 0.0 19 4   97.37 33   LegendNANA
13:00 26.8 18.7 61 0.0 22 5   97.35 33   LegendNANA
14:00 27.0 17.8 57 0.0 24 5   97.33 33   LegendNANA
15:00 28.0 17.9 54 0.0 20 4   97.28 34   LegendNANA
16:00 27.5 17.3 54 0.0 25 4   97.26 33   LegendNANA
17:00 26.5 18.4 61 0.0 14 5   97.25 33   LegendNANA
18:00 25.8 19.0 66 0.0 14 5   97.23 33   LegendNANA
19:00 22.0 18.7 82 0.0   0   97.24 29   LegendNANA
20:00 20.2 18.6 90 0.0 0 1   97.28 27   LegendNANA
21:00 19.1 18.0 94 0.0   0   97.28     LegendNANA
22:00 18.8 18.1 95 0.0 12 1   97.27     LegendNANA
23:00 18.3 17.6 96 0.0   0   97.25     LegendNANA

Notes on Data Quality.

Legend

  • E = Estimated
  • M = Missing
  • NA = Not Available*
  • [empty] = Indicates an unobserved value
Date modified: